Pittsburg, KS

6:03 PM CST on December 09, 2019 (GMT -0600)
Atkinson Municipal

Weather History for KPTS - October, 2019

Change the Weather History Date:

Monday, October 14, 2019

  Actual Average (KJLN) Record (KJLN)
Temperature  
Mean Temperature 58 °F -  
Max Temperature 74 °F 73 °F 90 °F (1963)
Min Temperature 41 °F 50 °F 32 °F (2002)
Degree Days  
Heating Degree Days 8    
Growing Degree Days 8 (Base 50)    
Moisture  
Dew Point 49 °F    
Average Humidity 74    
Maximum Humidity 100    
Minimum Humidity 43    
Precipitation  
Precipitation 0.00 in - - ()
Sea Level Pressure  
Sea Level Pressure 29.98 in    
Wind  
Wind Speed 3 mph (SSE)    
Max Wind Speed 13 mph    
Max Gust Speed 18 mph    
Visibility 10 miles    
Events      
Averages and records for this station are not official NWS values.
T = Trace of Precipitation, MM = Missing Value Source: NWS Daily Summary

Daily Weather History Graph

Daily Weather History Graph

Search for Another Location

Airport or City:

Astronomy

Oct. 14, 2019 Rise Set
Actual Time 7:25 AM CDT 6:43 PM CDT
Civil Twilight 6:59 AM CDT 7:09 PM CDT
Nautical Twilight 6:29 AM CDT 7:39 PM CDT
Astronomical Twilight 5:59 AM CDT 8:10 PM CDT
Moon 7:34 PM CDT (10/14) 7:58 AM CDT (10/14)
Length of Visible Light 12h 10m
Length of Day
11h 17m
Full, 99% of the Moon is Illuminated
Oct 14
Full
Oct 21
Last Quarter
Oct 27
New
Nov 4
First Quarter
Nov 12
Full

Hourly Weather History & Observations

Time (CDT) Temp. Windchill Dew Point Humidity Pressure Visibility Wind Dir Wind Speed Gust Speed Precip Events Conditions
12:15 AM 46.6 °F - 45.0 °F 94% 30.01 in 10.0 mi Calm Calm - N/A   Clear
12:35 AM 46.2 °F - 44.4 °F 93% 30.02 in 10.0 mi Calm Calm - N/A   Clear
12:55 AM 45.7 °F - 44.2 °F 95% 30.02 in 10.0 mi Calm Calm - N/A   Clear
1:15 AM 45.5 °F - 44.4 °F 96% 30.02 in 10.0 mi Calm Calm - N/A   Clear
1:35 AM 45.7 °F - 44.4 °F 95% 30.02 in 10.0 mi Calm Calm - N/A   Clear
1:55 AM 45.1 °F - 44.1 °F 96% 30.02 in 10.0 mi Calm Calm - N/A   Clear
2:15 AM 44.6 °F - 44.1 °F 98% 30.02 in 10.0 mi Calm Calm - N/A   Clear
2:35 AM 44.6 °F - 43.9 °F 97% 30.02 in 10.0 mi Calm Calm - N/A   Clear
2:55 AM 43.7 °F - 43.5 °F 99% 30.02 in 10.0 mi Calm Calm - N/A   Clear
3:15 AM 43.3 °F - 43.2 °F 99% 30.02 in 10.0 mi Calm Calm - N/A   Clear
3:35 AM 42.8 °F - 42.6 °F 99% 30.02 in 10.0 mi Calm Calm - N/A   Clear
3:55 AM 42.4 °F - 41.7 °F 97% 30.02 in 10.0 mi Calm Calm - N/A   Clear
4:15 AM 42.6 °F 40.9 °F 42.3 °F 99% 30.02 in 10.0 mi North 3.5 mph - N/A   Clear
4:35 AM 42.6 °F - 42.4 °F 99% 30.02 in 10.0 mi Calm Calm - N/A   Clear
4:55 AM 42.6 °F - 42.4 °F 99% 30.02 in 10.0 mi Calm Calm - N/A   Clear
5:15 AM 42.6 °F - 42.6 °F 100% 30.03 in 10.0 mi Calm Calm - N/A   Clear
5:35 AM 42.1 °F - 42.1 °F 100% 30.04 in 10.0 mi Calm Calm - N/A   Clear
5:55 AM 42.1 °F - 41.9 °F 99% 30.04 in 10.0 mi Calm Calm - N/A   Clear
6:15 AM 41.5 °F - 41.7 °F 100% 30.04 in 10.0 mi Calm Calm - N/A   Clear
6:55 AM 41.5 °F - 41.5 °F 100% 30.05 in 10.0 mi Calm Calm - N/A   Clear
7:15 AM 41.9 °F - 41.5 °F 99% 30.05 in 10.0 mi Calm Calm - N/A   Clear
7:35 AM 41.9 °F - 41.4 °F 98% 30.05 in 10.0 mi Calm Calm - N/A   Clear
7:55 AM 42.3 °F - 41.4 °F 97% 30.05 in 10.0 mi Calm Calm - N/A   Clear
8:15 AM 43.9 °F - 42.6 °F 95% 30.06 in 10.0 mi Calm Calm - N/A   Clear
8:35 AM 45.9 °F - 43.7 °F 92% 30.06 in 10.0 mi Calm Calm - N/A   Clear
9:15 AM 50.5 °F - 46.4 °F 86% 30.06 in 10.0 mi SE 3.5 mph - N/A   Clear
9:35 AM 52.9 °F - 46.6 °F 79% 30.06 in 10.0 mi SSE 3.5 mph - N/A   Clear
9:55 AM 54.9 °F - 47.1 °F 75% 30.06 in 10.0 mi SSE 3.5 mph - N/A   Clear
10:15 AM 56.8 °F - 48.0 °F 72% 30.05 in 10.0 mi SSE 3.5 mph - N/A   Clear
10:35 AM 59.7 °F - 49.1 °F 68% 30.05 in 10.0 mi SSE 4.6 mph - N/A   Clear
10:55 AM 61.7 °F - 49.8 °F 65% 30.04 in 10.0 mi SSE 4.6 mph - N/A   Clear
11:15 AM 63.7 °F - 50.7 °F 63% 30.04 in 10.0 mi SE 4.6 mph - N/A   Clear
11:35 AM 65.1 °F - 51.3 °F 61% 30.03 in 10.0 mi SSE 4.6 mph - N/A   Clear
11:55 AM 66.6 °F - 51.8 °F 59% 30.03 in 10.0 mi SSE 5.8 mph - N/A   Clear
12:15 PM 68.2 °F - 52.0 °F 56% 30.02 in 10.0 mi South 8.1 mph - N/A   Clear
12:35 PM 69.6 °F - 50.5 °F 51% 30.02 in 10.0 mi SSE 11.5 mph 18.4 mph N/A   Clear
1:15 PM 71.6 °F - 50.9 °F 48% 30.00 in 10.0 mi South 11.5 mph - N/A   Clear
1:35 PM 72.0 °F - 50.7 °F 47% 29.99 in 10.0 mi South 10.4 mph - N/A   Clear
1:55 PM 72.5 °F - 50.2 °F 45% 29.97 in 10.0 mi SSE 5.8 mph - N/A   Clear
2:15 PM 73.0 °F - 50.5 °F 45% 29.96 in 10.0 mi South 9.2 mph - N/A   Clear
2:35 PM 73.4 °F - 50.5 °F 45% 29.95 in 10.0 mi South 12.7 mph - N/A   Clear
2:55 PM 73.8 °F - 50.5 °F 44% 29.94 in 10.0 mi SSE 10.4 mph - N/A   Clear
3:15 PM 73.8 °F - 50.4 °F 44% 29.94 in 10.0 mi South 10.4 mph - N/A   Clear
3:35 PM 74.1 °F - 50.4 °F 43% 29.93 in 10.0 mi South 10.4 mph - N/A   Clear
3:55 PM 74.7 °F - 50.9 °F 43% 29.92 in 10.0 mi South 11.5 mph 16.1 mph N/A   Clear
4:15 PM 74.7 °F - 51.3 °F 44% 29.92 in 10.0 mi South 10.4 mph - N/A   Clear
4:35 PM 74.5 °F - 51.8 °F 45% 29.91 in 10.0 mi South 10.4 mph - N/A   Clear
4:55 PM 74.5 °F - 52.3 °F 46% 29.91 in 10.0 mi South 8.1 mph - N/A   Clear
5:15 PM 74.3 °F - 52.7 °F 47% 29.90 in 10.0 mi SSE 10.4 mph 16.1 mph N/A   Clear
5:35 PM 73.8 °F - 52.7 °F 48% 29.90 in 10.0 mi SSE 10.4 mph - N/A   Clear
5:55 PM 72.9 °F - 52.5 °F 49% 29.89 in 10.0 mi SE 9.2 mph - N/A   Clear
6:15 PM 71.4 °F - 53.2 °F 53% 29.89 in 10.0 mi SE 5.8 mph - N/A   Clear
6:35 PM 69.6 °F - 53.4 °F 56% 29.88 in 10.0 mi SSE 5.8 mph - N/A   Clear
6:55 PM 66.9 °F - 53.6 °F 62% 29.88 in 10.0 mi SSE 4.6 mph - N/A   Clear
7:15 PM 65.5 °F - 53.4 °F 65% 29.89 in 10.0 mi SSE 4.6 mph - N/A   Clear
7:35 PM 64.6 °F - 53.6 °F 68% 29.89 in 10.0 mi SSE 4.6 mph - N/A   Clear
7:55 PM 64.4 °F - 53.6 °F 68% 29.89 in 10.0 mi SE 5.8 mph - N/A   Clear
8:15 PM 64.8 °F - 54.0 °F 68% 29.89 in 10.0 mi SSE 6.9 mph - N/A   Clear
8:55 PM 64.6 °F - 53.8 °F 68% 29.89 in 10.0 mi South 8.1 mph - N/A   Clear
9:35 PM 63.0 °F - 53.8 °F 72% 29.89 in 10.0 mi South 9.2 mph - N/A   Clear
9:55 PM 63.0 °F - 54.0 °F 72% 29.89 in 10.0 mi South 11.5 mph - N/A   Clear
10:15 PM 63.0 °F - 54.0 °F 72% 29.90 in 10.0 mi South 9.2 mph - N/A   Scattered Clouds
10:35 PM 62.8 °F - 54.3 °F 74% 29.90 in 10.0 mi South 10.4 mph - N/A   Mostly Cloudy
10:55 PM 62.8 °F - 54.9 °F 75% 29.90 in 10.0 mi South 11.5 mph 17.3 mph N/A   Mostly Cloudy
11:15 PM 63.9 °F - 55.9 °F 75% 29.91 in 10.0 mi South 11.5 mph 17.3 mph N/A   Overcast
11:35 PM 64.4 °F - 56.7 °F 76% 29.91 in 10.0 mi South 10.4 mph - N/A   Overcast
11:55 PM 64.2 °F - 56.7 °F 76% 29.91 in 10.0 mi South 9.2 mph - N/A   Overcast